Date,TemperatureHighF,TemperatureAvgF,TemperatureLowF,DewpointHighF,DewpointAvgF,DewpointLowF,HumidityHigh,HumidityAvg,HumidityLow,PressureMaxIn,PressureMinIn,WindSpeedMaxMPH,WindSpeedAvgMPH,GustSpeedMaxMPH,PrecipitationSumIn
2013-3-1,28.4,24.4,19.4,19.6,13.6,8.4,71,63,55,30.13,29.98,21,8,21,0.00
2013-3-2,29.7,21.0,13.3,8.4,4.7,1.0,66,50,31,30.17,29.99,18,6,18,0.00
2013-3-3,37.4,25.2,14.2,7.2,2.6,-1.5,56,39,24,30.05,29.92,12,5,12,0.00
2013-3-4,32.0,25.6,20.7,21.7,13.7,4.8,75,61,48,29.94,29.82,27,13,28,0.00
2013-3-5,28.6,27.0,26.1,25.7,22.1,18.9,89,82,72,29.84,29.75,17,9,20,0.00
2013-3-6,31.3,27.1,22.1,20.1,17.2,14.5,72,66,62,30.23,30.18,17,6,17,0.00
2013-3-7,36.1,26.3,15.8,21.7,16.2,9.5,83,66,49,30.32,30.19,15,5,15,0.00
2013-3-8,39.6,30.0,20.5,25.5,20.9,15.1,80,69,54,30.31,30.09,22,12,22,0.00
2013-3-9,40.3,36.0,32.2,38.8,31.5,24.3,98,84,71,30.09,29.64,28,14,30,0.34
2013-3-10,42.1,39.0,34.3,41.7,38.5,33.1,99,98,94,29.65,29.44,24,8,24,0.85
2013-3-11,34.2,31.7,28.6,33.1,29.2,23.0,97,91,80,29.70,29.46,11,2,11,0.06
2013-3-12,34.0,27.0,22.5,26.1,18.4,13.1,85,70,55,29.94,29.70,26,7,26,0.00
2013-3-13,34.0,25.5,19.0,14.0,9.3,2.7,72,52,28,30.27,29.93,23,11,23,0.00
2013-3-14,39.0,27.6,20.8,29.8,19.7,10.9,87,72,55,30.19,29.93,18,7,18,0.00
2013-3-15,37.6,32.9,28.8,33.3,29.1,25.5,93,86,78,29.93,29.62,20,6,20,0.05
2013-3-16,34.2,29.5,25.9,30.4,22.4,14.4,94,75,60,30.03,29.62,17,8,17,0.01
2013-3-17,32.4,26.4,19.6,19.8,14.5,6.4,72,61,48,30.10,29.81,23,12,23,0.00
2013-3-18,33.6,25.9,16.2,29.5,19.2,4.5,89,76,58,29.81,29.52,33,14,33,0.05
2013-3-19,29.3,19.9,10.8,9.0,4.1,-0.2,65,51,32,30.02,29.66,29,16,29,0.02
2013-3-20,23.0,14.7,7.3,3.2,-2.2,-8.7,58,47,38,30.04,29.92,30,15,33,0.00
2013-3-21,30.0,18.8,7.3,7.3,1.6,-4.2,62,48,33,30.21,29.88,15,6,15,0.00
2013-3-22,36.7,26.3,15.3,13.5,8.6,3.2,63,47,33,29.98,29.88,11,4,11,0.00
2013-3-23,40.3,32.7,23.9,19.6,14.9,9.1,67,48,35,30.04,29.90,14,5,14,0.00
2013-3-24,33.3,29.4,26.8,26.2,23.0,17.4,89,77,58,29.92,29.67,23,10,23,0.00
2013-3-25,36.0,30.5,26.1,22.8,18.7,13.5,81,61,53,30.00,29.70,26,11,26,0.00
2013-3-26,41.2,32.9,25.5,22.6,18.5,16.0,67,55,44,30.17,29.99,17,7,17,0.00
2013-3-27,44.1,36.1,29.1,24.8,19.2,12.0,74,52,31,30.25,30.15,13,4,13,0.00
2013-3-28,49.5,39.2,28.4,25.5,19.9,15.6,65,46,32,30.29,30.17,11,4,13,0.00
2013-3-29,55.8,45.1,37.4,28.4,23.5,17.8,50,43,31,30.24,30.10,12,5,12,0.00
2013-3-30,54.3,44.7,35.6,42.6,32.4,20.5,94,63,47,30.11,29.74,30,11,30,0.00
2013-3-31,48.7,40.1,31.5,42.3,31.3,19.8,96,72,49,29.84,29.68,34,11,34,0.02